星链-5953 (STARLINK-5953 )

导读 | 豆包AI

STARLINK-5953是美国SpaceX公司于2023年5月31日发射的星链系列卫星,属于星链第二代星座的组网卫星,部署在近地轨道,旨在为全球提供高速低延迟的宽带互联网服务。星链项目规划规模超过四万颗卫星,通过大规模低轨星座组网,可为偏远区域、应急通信、移动场景提供联网服务,当前该卫星已正常在轨运行,助力星链全球覆盖能力建设。

基本信息
目录编号:
56799
目录名称:
STARLINK-5953
国际标识:
2023-078AJ
轨道中心:
EARTH
卫星名称:
星链-5953
卫星全名:
星链-5953 (STARLINK-5953 )
卫星状态:
在轨 (已飞行1019 天)
发射日期:
2023-05-31 UTC
国别 :
美国 (US)
星等 :
--
轨道信息
数据来源 国际轨道数据
星历时间: 2026-03-15T09:22:41+0800
18小时前
查看轨道信息
半长轴: 6950.184km
偏心率: 0.0002604
轨道倾角: 70.000°
近地点辐角 267.771°
升交点赤经 330.945°
平近点角 92.315°
近地点: 570.237km
远地点: 573.857km
周期: 96.107分钟
每日圈数: 14.98333
详细信息
固有亮度:
5
最大亮度:
2.5
卫星平台:
Starlink v1.5
覆盖范围:
全球
运营商:
太空探索技术公司
运营商所在国:
美国
制造商(研发单位):
太空探索技术公司
制造商所在国:
美国
使用方式:
暂无
卫星简介
星链(Starlink)计划是由太空探索技术公司(SpaceX)提出的一个巨型低轨卫星互联网星座项目,计划在2019年至2024年间在太空搭建由约1.2万颗卫星组成的“星链”网络,其中1584颗将部署在地球上空550千米处的近地轨道,并从2020年开始工作。该卫星仍在工作。
2D轨道图
3D轨道图
轨道高度分析图
轨道倾角分析图
轨道综合分析图
查看轨道综合分析图